Location: Anciles
(42.5833°N, 0.5167°E)
Time: 01:20:04
(UTC+00:00)

SL-4 R/B - Pass Details

Date: 10 December 2019
Orbit: 428 x 667 km, 51.6° (Epoch: 17 January)

Event Time Altitude Azimuth Distance (km) Brightness Sun altitude
Rises 17:04:13 0° 270° (W) 2,482 6.7 -7.3°
Reaches altitude 10° 17:06:30 10° 283° (WNW) 1,643 5.3 -7.7°
Maximum altitude 17:09:45 28° 344° (NNW) 953 3.2 -8.2°
Drops below altitude 10° 17:13:15 10° 45° (NE) 1,765 4.0 -8.8°
Enters shadow 17:13:15 10° 46° (NE) 1,770 4.0 -8.8°
